Date String (YYYY-MM-DD hh:mm:ss) UTC,Instrument flags,Ambient pressure (hPa),Sample flow (lpm),Bypass flow (lpm),Sample temperature (°C),Ambient temperature (°C),ASC tube jacket temperature (°C),LED temperature (°C),Box temperature (°C),Sample RH (%),Span deviation,Mass concentration (μg/m³),Mass concentration (μg/m³),Mass concentration (μg/m³)
DateTimeUTC,F1_M11,P_M11,Q1_M11,Q2_M11,T1_M11,T2_M11,T3_M11,T4_M11,T5_M11,U1_M11,ZSPAN_M11,X2_M11,X0_M11,X1_M11
2021-11-05 23:00:00,,0826.5,4.99,0.00,29.8,27.5,00.0,38.8,31.4,07.6,0000.0,0001.20,0003.30,0000.95
2021-11-05 23:01:00,,0826.5,5.01,0.00,29.8,27.9,00.0,38.8,31.5,07.6,0000.0,0001.21,0003.94,0000.95
2021-11-05 23:02:00,,0826.5,5.00,0.00,29.8,28.1,00.0,38.8,31.5,07.6,0000.0,0001.23,0004.43,0000.95
2021-11-05 23:03:00,,0826.5,5.00,0.00,29.8,28.4,00.0,38.8,31.6,07.5,0000.0,0001.22,0004.92,0000.95
2021-11-05 23:04:00,,0826.6,4.99,0.00,29.9,28.6,00.0,38.8,31.6,07.6,0000.0,0001.24,0005.02,0000.95
2021-11-05 23:05:00,,0826.5,5.00,0.00,29.9,28.7,00.0,38.8,31.7,07.6,0000.0,0001.26,0004.96,0000.95
2021-11-05 23:06:00,,0826.5,5.01,0.00,29.9,28.8,00.0,38.8,31.7,07.6,0000.0,0001.26,0004.99,0000.95
2021-11-05 23:07:00,,0826.5,5.00,0.00,30.0,28.9,00.0,38.9,31.7,07.6,0000.0,0001.26,0004.97,0000.95
2021-11-05 23:08:00,,0826.5,5.00,0.00,30.0,29.0,00.0,38.9,31.8,07.6,0000.0,0001.27,0004.98,0000.95
2021-11-05 23:09:00,,0826.5,5.00,0.00,30.0,29.1,00.0,38.9,31.8,07.6,0000.0,0001.27,0004.91,0000.95
2021-11-05 23:10:00,,0826.5,5.00,0.00,30.1,29.2,00.0,38.9,31.9,07.6,0000.0,0001.28,0004.92,0000.95
2021-11-05 23:11:00,,0826.5,5.00,0.00,30.1,29.2,00.0,38.9,31.9,07.6,0000.0,0001.29,0004.06,0000.94
2021-11-05 23:12:00,,0826.6,4.99,0.00,30.1,28.8,00.0,39.0,31.9,07.6,0000.0,0001.29,0003.28,0000.95
2021-11-05 23:13:00,,0826.6,5.02,0.00,30.0,26.6,00.0,38.9,31.4,07.6,0000.0,0001.31,0002.90,0000.95
2021-11-05 23:14:00,,0826.5,5.00,0.00,29.9,25.5,00.0,38.9,31.2,07.7,0000.0,0001.32,0002.31,0000.96
2021-11-05 23:15:00,,0826.5,4.99,0.00,29.8,25.8,00.0,38.9,31.2,07.7,0000.0,0001.32,0002.49,0000.95
2021-11-05 23:16:00,,0826.5,5.00,0.00,29.7,26.3,00.0,38.8,31.1,07.7,0000.0,0001.30,0002.48,0000.95
2021-11-05 23:17:00,,0826.5,5.01,0.00,29.6,26.8,00.0,38.7,31.2,07.8,0000.0,0001.28,0002.42,0000.94
2021-11-05 23:18:00,,0826.5,5.00,0.00,29.6,27.2,00.0,38.7,31.2,07.8,0000.0,0001.28,0003.04,0000.93
2021-11-05 23:19:00,,0826.5,5.00,0.00,29.6,27.6,00.0,38.7,31.3,07.8,0000.0,0001.34,0003.57,0000.93
2021-11-05 23:20:00,,0826.5,4.98,0.00,29.7,27.9,00.0,38.7,31.4,07.8,0000.0,0001.33,0003.55,0000.93
2021-11-05 23:21:00,,0826.5,5.01,0.00,29.7,28.1,00.0,38.7,31.4,07.8,0000.0,0001.33,0003.55,0000.93
2021-11-05 23:22:00,,0826.5,5.00,0.00,29.7,28.3,00.0,38.7,31.4,07.6,0000.0,0001.32,0003.41,0000.93
2021-11-05 23:23:00,,0826.5,4.99,0.00,29.7,28.5,00.0,38.7,31.5,07.5,0000.0,0001.31,0003.37,0000.93
2021-11-05 23:24:00,,0826.5,5.01,0.00,29.8,28.6,00.0,38.7,31.5,07.6,0000.0,0001.26,0003.24,0000.92
2021-11-05 23:25:00,,0826.5,5.00,0.00,29.8,28.7,00.0,38.7,31.6,07.6,0000.0,0001.25,0003.21,0000.92
2021-11-05 23:26:00,,0826.5,5.00,0.00,29.8,28.8,00.0,38.7,31.7,07.5,0000.0,0001.26,0003.08,0000.92
2021-11-05 23:27:00,,0826.5,5.00,0.00,29.9,28.9,00.0,38.7,31.7,07.4,0000.0,0001.24,0003.00,0000.92
2021-11-05 23:28:00,,0826.6,4.99,0.00,29.9,29.0,00.0,38.8,31.7,07.5,0000.0,0001.25,0003.00,0000.92
2021-11-05 23:29:00,,0826.5,5.01,0.00,29.9,29.1,00.0,38.8,31.7,07.6,0000.0,0001.26,0002.48,0000.94
2021-11-05 23:30:00,,0826.5,4.99,0.00,30.0,29.1,00.0,38.8,31.8,07.7,0000.0,0001.21,0001.87,0000.94
2021-11-05 23:31:00,,0826.5,5.00,0.00,30.0,29.2,00.0,38.8,31.9,07.5,0000.0,0001.23,0001.90,0000.94
2021-11-05 23:32:00,,0826.5,5.00,0.00,30.0,29.2,00.0,38.9,31.9,07.4,0000.0,0001.21,0001.86,0000.95
2021-11-05 23:33:00,,0826.5,5.00,0.00,30.1,29.3,00.0,38.9,31.9,07.4,0000.0,0001.22,0001.91,0000.96
2021-11-05 23:34:00,,0826.5,5.00,0.00,30.1,28.6,00.0,38.9,31.8,07.5,0000.0,0001.24,0001.96,0000.96
2021-11-05 23:35:00,,0826.5,5.00,0.00,30.0,26.7,00.0,38.9,31.4,07.6,0000.0,0001.26,0002.05,0000.96
2021-11-05 23:36:00,,0826.6,5.00,0.00,29.9,26.5,00.0,38.9,31.4,07.7,0000.0,0001.29,0002.19,0000.95
2021-11-05 23:37:00,,0826.7,5.00,0.00,29.8,26.8,00.0,38.8,31.3,07.8,0000.0,0001.30,0002.24,0000.94
2021-11-05 23:38:00,,0826.7,5.01,0.00,29.8,27.2,00.0,38.8,31.4,07.5,0000.0,0001.33,0002.22,0000.94
2021-11-05 23:39:00,,0826.7,4.99,0.00,29.8,27.5,00.0,38.8,31.4,07.4,0000.0,0001.32,0002.21,0000.94
2021-11-05 23:40:00,,0826.7,5.01,0.00,29.8,27.9,00.0,38.8,31.5,07.5,0000.0,0001.33,0002.51,0000.94
2021-11-05 23:41:00,,0826.7,5.00,0.00,29.8,28.1,00.0,38.8,31.5,07.5,0000.0,0001.33,0002.81,0000.93
2021-11-05 23:42:00,,0826.6,5.01,0.00,29.8,28.3,00.0,38.8,31.5,07.6,0000.0,0001.29,0003.10,0000.92
2021-11-05 23:43:00,,0826.6,4.99,0.00,29.8,28.5,00.0,38.8,31.6,07.6,0000.0,0001.28,0003.12,0000.90
2021-11-05 23:44:00,,0826.7,5.00,0.00,29.8,28.6,00.0,38.8,31.6,07.5,0000.0,0001.29,0003.19,0000.91
2021-11-05 23:45:00,,0826.7,5.00,0.00,29.9,28.7,00.0,38.8,31.7,07.6,0000.0,0001.32,0003.31,0000.92
2021-11-05 23:46:00,,0826.7,4.99,0.00,29.9,28.8,00.0,38.8,31.7,07.6,0000.0,0001.34,0003.30,0000.93
2021-11-05 23:47:00,,0826.7,5.00,0.00,29.9,28.9,00.0,38.8,31.7,07.6,0000.0,0001.32,0003.17,0000.93
2021-11-05 23:48:00,,0826.7,4.99,0.00,29.9,29.0,00.0,38.8,31.7,07.5,0000.0,0001.29,0003.07,0000.93
2021-11-05 23:49:00,,0826.7,4.99,0.00,30.0,29.0,00.0,38.8,31.7,07.5,0000.0,0001.29,0003.10,0000.93
2021-11-05 23:50:00,,0826.6,5.00,0.00,30.0,29.1,00.0,38.9,31.8,07.6,0000.0,0001.31,0003.22,0000.93
2021-11-05 23:51:00,,0826.7,5.00,0.00,30.0,29.1,00.0,38.9,31.9,07.7,0000.0,0001.33,0003.09,0000.94
2021-11-05 23:52:00,,0826.7,5.00,0.00,30.1,29.2,00.0,38.9,31.9,07.7,0000.0,0001.33,0003.06,0000.95
2021-11-05 23:53:00,,0826.7,4.99,0.00,30.1,29.2,00.0,38.9,31.9,07.7,0000.0,0001.36,0002.76,0000.95
2021-11-05 23:54:00,,0826.6,4.99,0.00,30.1,29.0,00.0,39.0,31.9,07.6,0000.0,0001.37,0002.74,0000.96
2021-11-05 23:55:00,,0826.7,5.00,0.00,30.1,27.0,00.0,38.9,31.5,07.6,0000.0,0001.34,0002.59,0000.95
2021-11-05 23:56:00,,0826.7,5.01,0.00,29.9,26.4,00.0,38.9,31.4,07.7,0000.0,0001.32,0002.50,0000.95
2021-11-05 23:57:00,,0826.7,5.00,0.00,29.9,26.6,00.0,38.9,31.3,07.7,0000.0,0001.27,0002.41,0000.95
2021-11-05 23:58:00,,0826.7,5.01,0.00,29.8,27.0,00.0,38.8,31.3,07.7,0000.0,0001.26,0003.75,0000.95
2021-11-05 23:59:00,,0826.7,5.01,0.00,29.8,27.4,00.0,38.8,31.3,07.8,0000.0,0001.27,0003.84,0000.95
